Content
SEND FEEDBACK

Daily
Averages
Monthly
Summary
Cameroon

DOUALA, CAMEROON


Home > Africa > Cameroon
Elevation: 30 feet     Latitude: 04 00N     Longitude: 009 44E

WEATHER
 
SELECT A DAY
Number of Records: 121,944;   Date Range: 12/24/98 - 10/19/14
 
SHARE

PRINT THIS DATA

[ ← Previous Day ]
WEATHER ALMANAC - FEBRUARY 13, 2013
[ Next Day → ]
[ °C ]   °F
Weather ElementAverageHighLow
Temperature83.6 °F91.4 °F (1:00 pm)76 °F (7:00 am)
Dewpoint76.8 °F79 °F (1:00 am)75 °F (7:00 am)
Humidity80.2 %96 % (1:00 am)57 % (1:00 pm)
Barometer29.80 in29.86 in (11:00 am)29.74 in (4:00 pm)
Wind Speed3.1 mph11.5 mph (1:00 pm)
Weather ElementAverage
Visibility5 mi
Wind DirectionE (87.4 °)

Weather ElementTotal
Precipitation---
Cooling Degree Days18.7 (Base 65)
Growing Degree Days33.7 (Base 50)
Averaged from 26 records on February 13, 2013
WEATHER CONDITIONS BREAKOUT
WIND DIRECTION BREAKOUT
WEATHER BY HOUR - FEBRUARY 13, 2013
[ °C ]   °F
Local TimeTemperatureDewpointHumidityBarometerVisibilityWind DirectionWind SpeedGust SpeedPrecipitationEventsConditions
1:00 AM80.0 °F79.0 °F96 %29.82 in6.0 miCalmMostly Cloudy
1:00 AM80.6 °F78.8 °F94 %29.83 in6.2 miCalmThunderstormThunderstorm
2:00 AM80.6 °F78.8 °F94 %29.80 in4.3 miNorth (360°)9.2 mphThunderstormThunderstorm
3:00 AM78.8 °F75.2 °F89 %29.80 in4.3 miNorth (360°)4.6 mphThunderstormThunderstorm
4:00 AM78.8 °F75.2 °F89 %29.80 in4.3 miCalmThunderstormThunderstorm
5:00 AM77.0 °F75.2 °F94 %29.80 in2.5 miCalmThunderstormPartly Cloudy
6:00 AM77.0 °F75.2 °F94 %29.80 inVariable1.2 mphThunderstormPartly Cloudy
7:00 AM77.0 °F75.2 °F94 %29.83 in1.6 miCalmThunderstormMostly Cloudy
7:00 AM76.0 °F75.0 °F94 %29.81 in2.0 miCalmThunderstormThunderstorm
9:00 AM82.4 °F77.0 °F84 %29.83 in3.7 miCalmMostly Cloudy
10:00 AM86.0 °F75.2 °F70 %29.83 in3.7 miCalmMostly Cloudy
11:00 AM87.8 °F77.0 °F70 %29.86 in3.7 miCalmMostly Cloudy
12:00 PM89.6 °F77.0 °F66 %29.86 in3.7 miSW (220°)4.6 mphPartly Cloudy
1:00 PM91.4 °F77.0 °F63 %29.83 in6.2 miSW (220°)11.5 mphMostly Cloudy
1:00 PM90.0 °F77.0 °F57 %29.83 in6.0 miSW (220°)11.5 mphPartly Cloudy
2:00 PM89.6 °F77.0 °F66 %29.77 in6.2 miSW (220°)11.5 mphMostly Cloudy
3:00 PM89.6 °F77.0 °F66 %29.77 in6.2 miSW (220°)9.2 mphMostly Cloudy
4:00 PM89.6 °F75.2 °F62 %29.74 in6.2 miVariable6.9 mphMostly Cloudy
5:00 PM87.8 °F77.0 °F70 %29.74 in6.2 miVariable6.9 mphMostly Cloudy
6:00 PM86.0 °F75.2 °F70 %29.74 in6.2 miSouth (190°)4.6 mphMostly Cloudy
7:00 PM84.2 °F77.0 °F79 %29.77 in6.2 miCalmMostly Cloudy
7:00 PM84.0 °F77.0 °F73 %29.79 in6.0 miCalmPartly Cloudy
8:00 PM82.4 °F77.0 °F84 %29.77 in6.2 miCalmMostly Cloudy
9:00 PM82.4 °F78.8 °F89 %29.80 in6.2 miCalmPartly Cloudy
10:00 PM82.4 °F78.8 °F89 %29.77 in6.2 miCalmPartly Cloudy
11:00 PM82.4 °F78.8 °F89 %29.80 in6.2 miCalmPartly Cloudy
Hourly data recorded from FKKD, located miles away from Douala, Cameroon







STORIES FROM OUR PARTNERS